Theta_e
324 325 324 323 324 324 324 324 324 323 324 324 323 322 321 321 319 318 317 315 308 306 305 307 312 315 315
324 326 324 324 324 323 322 323 322 323 322 322 321 320 320 320 318 318 317 314 309 306 305 305 309 309 315
324 323 323 323 323 322 322 321 321 322 321 319 319 318 319 319 317 317 317 316 308 305 304 304 307 308 310
324 322 321 320 321 319 319 319 320 321 319 319 318 317 316 316 316 316 313 309 305 304 304 303 306 307 307
323 324 318 316 316 318 318 320 319 318 318 316 316 317 317 316 315 316 313 308 304 303 303 303 305 306 307
323 323 322 320 319 318 316 316 315 317 314 312 315 315 317 318 318 317 317 313 306 303 303 303 305 306 307
323 323 323 322 321 316 316 316 318 317 316 312 312 311 313 314 316 317 319 315 309 304 302 303 304 306 307
321 323 323 323 323 320 318 317 317 317 317 313 312 309 312 312 312 312 314 314 310 305 304 303 303 304 306
315 315 317 316 316 316 316 314 314 311 313 312 314 309 308 310 313 310 308 308 308 304 304 302 303 303 305
308 308 308 308 309 307 307 310 310 307 310 306 309 304 299 306 308 306 304 302 304 303 302 302 303 304 305
294 295 297 299 301 301 301 301 302 305 307 305 307 302 301 301 298 300 301 301 301 301 301 302 303 303 304
293 293 294 294 293 295 297 298 299 299 299 298 300 302 299 299 296 297 297 298 299 300 301 302 302 303 304
292 292 292 292 292 293 293 293 294 295 296 297 297 297 297 298 298 294 293 294 297 299 300 301 301 301 301
287 287 288 289 290 290 290 290 291 291 292 292 293 294 295 295 297 295 294 293 294 297 298 300 300 300 300
285 286 286 287 288 288 289 290 291 291 291 292 292 292 292 292 293 293 292 292 292 295 296 296 298 299 299
285 286 286 286 286 287 288 289 290 291 291 291 290 288 288 289 290 292 290 291 291 291 294 294 293 296 298
285 286 286 286 286 286 287 288 289 290 290 290 289 288 290 290 289 289 290 289 289 289 291 292 292 292 296
Wind_Speed
27 33 30 29 28 30 36 33 34 35 33 34 34 34 34 33 30 28 25 24 25 23 21 18 14 13 15
23 20 23 24 23 30 33 26 30 32 34 34 33 35 36 35 33 31 28 28 27 26 23 19 17 16 16
19 24 25 28 27 30 28 30 30 32 35 35 32 34 37 38 36 35 32 32 31 27 23 21 21 19 20
28 22 26 29 32 27 28 32 32 35 39 41 37 33 33 37 37 37 38 32 31 29 25 24 23 23 22
24 22 16 13 23 27 27 32 41 41 39 41 42 39 41 40 41 42 40 36 34 31 29 26 27 25 24
22 19 22 26 27 31 26 19 11 34 34 34 40 48 48 48 48 47 46 43 38 35 32 30 28 27 26
29 26 26 25 31 27 31 28 32 22 30 26 35 46 48 51 51 53 50 47 42 39 35 32 28 28 28
28 30 30 31 33 40 39 40 40 33 34 21 30 36 43 47 50 52 52 48 47 43 38 36 32 31 31
7 12 15 16 10 12 19 18 12 18 34 27 29 29 34 44 49 49 48 48 49 44 41 39 35 33 32
14 14 15 16 16 14 13 18 15 7 14 21 24 19 7 33 45 45 43 47 49 46 42 40 38 33 32
17 18 19 19 19 18 16 13 17 18 17 17 14 18 15 8 15 34 39 40 45 44 42 43 42 39 36
20 20 21 22 25 24 22 21 20 23 25 24 18 17 15 9 9 15 33 35 37 39 42 42 42 39 37
17 17 22 23 26 27 26 25 26 27 26 24 24 29 30 25 12 13 13 27 37 34 36 39 42 41 37
17 19 21 22 22 24 24 25 25 25 23 26 28 27 31 30 31 24 25 16 34 35 36 35 35 37 37
16 17 17 19 20 22 23 23 19 22 25 25 29 29 31 32 20 24 25 26 27 33 35 31 33 37 36
20 22 23 24 26 25 23 22 21 21 22 23 23 16 13 19 30 23 25 25 27 31 28 25 23 33 36
21 23 24 25 26 24 24 23 23 25 25 24 20 17 10 11 11 20 20 21 25 24 26 20 21 28 30
Wind_Direction
236 236 235 235 231 241 242 245 249 249 248 246 244 242 241 242 248 252 255 261 264 268 269 260 250 242 243
228 219 223 234 240 239 236 243 244 248 247 246 245 244 245 245 248 250 254 259 261 263 265 257 244 241 235
240 236 237 238 232 237 241 241 245 253 254 250 249 248 245 248 249 251 255 258 257 254 255 253 243 236 231
236 225 218 227 224 220 228 241 250 252 252 251 247 246 250 252 249 251 253 253 251 249 250 249 239 235 228
233 229 198 190 206 222 223 234 243 246 251 246 243 241 247 248 249 247 250 249 248 246 246 244 236 230 226
232 227 225 219 223 219 225 223 239 245 230 237 247 245 250 249 251 252 251 247 246 244 242 241 232 229 221
235 237 238 232 229 221 220 224 237 235 231 237 237 243 248 249 252 252 251 246 240 240 236 235 231 229 222
252 256 252 249 246 232 229 232 242 240 236 234 234 234 247 254 254 254 249 246 237 230 230 229 227 226 224
285 293 288 301 313 280 255 235 240 236 228 231 239 238 238 244 252 249 248 247 238 227 228 225 222 219 219
347 339 338 333 333 337 322 305 273 298 245 223 247 233 256 247 244 241 235 229 233 227 223 221 216 211 212
2 354 350 346 342 337 334 327 310 292 311 252 262 235 236 254 237 229 223 219 216 220 218 213 210 206 205
11 4 358 351 341 334 328 319 308 298 301 300 267 271 248 254 256 235 222 219 213 207 202 209 209 204 208
9 355 345 337 334 334 331 324 316 309 305 302 289 277 265 259 263 227 206 219 212 205 200 195 197 198 190
351 339 336 333 327 326 323 321 317 314 311 308 302 283 261 254 251 245 213 198 207 208 197 194 192 195 192
347 338 331 325 321 319 310 302 290 297 300 296 296 290 273 254 243 240 220 207 208 201 188 188 191 192 190
354 348 339 330 324 319 312 302 291 287 288 293 278 266 258 249 240 231 208 211 194 192 191 184 181 188 195
339 337 331 323 318 310 304 299 295 291 287 287 273 251 261 257 246 217 201 188 174 168 176 177 180 183 191